sat.trackr.live / text

‹ back to catalog

ONEWEB-0010

NORAD 44058 · 2019-010B

PAYLOAD ACTIVE UNKNOWN

§ Identity

Operator
Country
UK
Launch date
2019-02-27
Launch site
FRGUI
Launch vehicle
Mass (kg)
RCS (m²)

Purposes: comms

External: N2YO · Heavens-Above · Gunter

§ Orbital elements

Epoch: 2026-05-24T22:44:18.235392Z

Period
109.37 min
Inclination
87.9106°
Eccentricity
0.0001634
Mean motion
13.16593824 rev/d
Perigee alt
1,196.5 km
Apogee alt
1,199.0 km
Semi-major
7,575.9 km
B*
-5.4411e-5
RAAN
233.3949°
Arg perigee
99.0676°
Mean anomaly
261.0640°
Rev number
34,855

§ Raw data

ONEWEB-00101 44058U 19010B   26144.94743328 -.00000008  00000+0 -54411-4 0  99972 44058  87.9106 233.3949 0001634  99.0676 261.0640 13.16593824348554

JSON: /api/v1/satellites/44058 · /tle

For live sub-satellite position, see the globe view (requires WebGL).

§ Visibility from observer

Set your observer location to see the next 7 days of passes ≥ 10°. The values pass through the URL so the page stays shareable.

No JS? Fill the form by hand. The geolocation button needs JavaScript.